Weather reports worldwide

Advertisment
Moskva, Russia (27612): temperature & dewpoint: 15.02.2019 23:00:00 - 21.02.2019 23:00:00 (MSK)Moskva, Russia (27612): wind speed: 15.02.2019 23:00:00 - 21.02.2019 23:00:00 (MSK)Moskva, Russia (27612): wind direction: 15.02.2019 23:00:00 - 21.02.2019 23:00:00 (MSK)Moskva, Russia (27612): reduced air pressure: 15.02.2019 23:00:00 - 21.02.2019 23:00:00 (MSK)Moskva, Russia (27612): visibility: 15.02.2019 23:00:00 - 21.02.2019 23:00:00 (MSK)
Date & Time tt [°C] td [°C] ff [km/h] ff [kn] dd ppp [hPa] vv [km]
21.02.2019 23:00:00 - - - - - - -
21.02.2019 22:00:00 - - - - - - -
21.02.2019 21:00:00 -7,0 -11,0 11 6 NW 1005,1 -
21.02.2019 20:00:00 - - - - - - -
21.02.2019 19:00:00 - - - - - - -
21.02.2019 18:00:00 -5,2 -7,4 11 6 NNW 1002,6 4,0
21.02.2019 17:00:00 - - - - - - -
21.02.2019 16:00:00 - - - - - - -
21.02.2019 15:00:00 -2,6 -6,7 11 6 NW 999,5 4,0
21.02.2019 14:00:00 - - - - - - -
21.02.2019 13:00:00 - - - - - - -
21.02.2019 12:00:00 -2,4 -6,4 7 4 NNW 997,9 4,0
21.02.2019 11:00:00 - - - - - - -
21.02.2019 10:00:00 - - - - - - -
21.02.2019 09:00:00 -1,0 -3,1 7 4 WNW 995,9 10
21.02.2019 08:00:00 - - - - - - -
21.02.2019 07:00:00 - - - - - - -
21.02.2019 06:00:00 0,6 -0,1 4 2 WNW 994,7 -
21.02.2019 05:00:00 - - - - - - -
21.02.2019 04:00:00 - - - - - - -
21.02.2019 03:00:00 1,0 0,1 4 2 WSW 995,2 -
21.02.2019 02:00:00 - - - - - - -
21.02.2019 01:00:00 - - - - - - -
21.02.2019 00:00:00 1,8 0,4 4 2 SW 996,1 -
20.02.2019 23:00:00 - - - - - - -
20.02.2019 22:00:00 - - - - - - -
20.02.2019 21:00:00 2,0 -0,1 4 2 SSW 997,9 -
20.02.2019 20:00:00 - - - - - - -
20.02.2019 19:00:00 - - - - - - -
20.02.2019 18:00:00 2,4 0,1 4 2 SW 999,1 10
20.02.2019 17:00:00 - - - - - - -
20.02.2019 16:00:00 - - - - - - -
20.02.2019 15:00:00 2,9 -0,5 7 4 SW 999,7 10
20.02.2019 14:00:00 - - - - - - -
20.02.2019 13:00:00 - - - - - - -
20.02.2019 12:00:00 2,2 -0,5 4 2 WSW 1000,7 10
20.02.2019 11:00:00 - - - - - - -
20.02.2019 10:00:00 - - - - - - -
20.02.2019 09:00:00 0,9 -2,2 7 4 SW 1000,9 10
20.02.2019 08:00:00 - - - - - - -
20.02.2019 07:00:00 - - - - - - -
20.02.2019 06:00:00 -0,4 -4,2 4 2 SW 1002,5 -
20.02.2019 05:00:00 - - - - - - -
20.02.2019 04:00:00 - - - - - - -
20.02.2019 03:00:00 -1,1 -6,3 4 2 SSW 1005,0 -
20.02.2019 02:00:00 - - - - - - -
20.02.2019 01:00:00 - - - - - - -
20.02.2019 00:00:00 -0,7 -9,3 4 2 SW 1008,0 -
19.02.2019 23:00:00 - - - - - - -
19.02.2019 22:00:00 - - - - - - -
19.02.2019 21:00:00 -0,8 -9,7 4 2 SSW 1010,5 -
19.02.2019 20:00:00 - - - - - - -
19.02.2019 19:00:00 - - - - - - -
19.02.2019 18:00:00 0,7 -10,9 4 2 W 1012,2 10
19.02.2019 17:00:00 - - - - - - -
19.02.2019 16:00:00 - - - - - - -
19.02.2019 15:00:00 2,2 -12,8 7 4 W 1013,4 10
19.02.2019 14:00:00 - - - - - - -
19.02.2019 13:00:00 - - - - - - -
19.02.2019 12:00:00 0,9 -12,8 4 2 WSW 1015,8 10
19.02.2019 11:00:00 - - - - - - -
19.02.2019 10:00:00 - - - - - - -
19.02.2019 09:00:00 -5,1 -12,8 4 2 SW 1019,3 10
19.02.2019 08:00:00 - - - - - - -
19.02.2019 07:00:00 - - - - - - -
19.02.2019 06:00:00 -8,2 -11,8 0 0 N 1021,7 -
19.02.2019 05:00:00 - - - - - - -
19.02.2019 04:00:00 - - - - - - -
19.02.2019 03:00:00 -9,8 -13,2 0 0 N 1023,4 -
19.02.2019 02:00:00 - - - - - - -
19.02.2019 01:00:00 - - - - - - -
19.02.2019 00:00:00 -6,3 -13,0 0 0 N 1023,2 -
18.02.2019 23:00:00 - - - - - - -
18.02.2019 22:00:00 - - - - - - -
18.02.2019 21:00:00 -4,2 -12,4 4 2 NNW 1022,3 -
18.02.2019 20:00:00 - - - - - - -
18.02.2019 19:00:00 - - - - - - -
18.02.2019 18:00:00 -2,6 -11,4 4 2 NW 1020,6 10
18.02.2019 17:00:00 - - - - - - -
18.02.2019 16:00:00 - - - - - - -
18.02.2019 15:00:00 -1,4 -11,1 11 6 NNW 1018,8 10
18.02.2019 14:00:00 - - - - - - -
18.02.2019 13:00:00 - - - - - - -
18.02.2019 12:00:00 -1,9 -11,4 18 10 N 1017,6 10
18.02.2019 11:00:00 - - - - - - -
18.02.2019 10:00:00 - - - - - - -
18.02.2019 09:00:00 -2,9 -10,4 18 10 NNW 1014,7 10
18.02.2019 08:00:00 - - - - - - -
18.02.2019 07:00:00 - - - - - - -
18.02.2019 06:00:00 -1,7 -10,1 11 6 NNW 1010,9 -
18.02.2019 05:00:00 - - - - - - -
18.02.2019 04:00:00 - - - - - - -
18.02.2019 03:00:00 -0,6 -7,7 14 8 NNW 1007,5 -
18.02.2019 02:00:00 - - - - - - -
18.02.2019 01:00:00 - - - - - - -
18.02.2019 00:00:00 -0,2 -8,0 14 8 NW 1004,4 -
17.02.2019 23:00:00 - - - - - - -
17.02.2019 22:00:00 - - - - - - -
17.02.2019 21:00:00 0,1 -3,7 11 6 NW 1002,0 -
17.02.2019 20:00:00 - - - - - - -
17.02.2019 19:00:00 - - - - - - -
17.02.2019 18:00:00 1,9 -5,8 14 8 NW 999,9 10
17.02.2019 17:00:00 - - - - - - -
17.02.2019 16:00:00 - - - - - - -
17.02.2019 15:00:00 5,1 -6,6 11 6 NW 997,3 10
17.02.2019 14:00:00 - - - - - - -
17.02.2019 13:00:00 - - - - - - -
17.02.2019 12:00:00 4,4 -3,2 11 6 NW 998,3 10
17.02.2019 11:00:00 - - - - - - -
17.02.2019 10:00:00 - - - - - - -
17.02.2019 09:00:00 2,3 -1,7 7 4 WNW 998,7 10
17.02.2019 08:00:00 - - - - - - -
17.02.2019 07:00:00 - - - - - - -
17.02.2019 06:00:00 0,8 -2,7 7 4 W 1000,0 -
17.02.2019 05:00:00 - - - - - - -
17.02.2019 04:00:00 - - - - - - -
17.02.2019 03:00:00 0,2 -2,3 4 2 W 1003,4 -
17.02.2019 02:00:00 - - - - - - -
17.02.2019 01:00:00 - - - - - - -
17.02.2019 00:00:00 1,2 -1,1 4 2 W 1007,3 -
16.02.2019 23:00:00 - - - - - - -
16.02.2019 22:00:00 - - - - - - -
16.02.2019 21:00:00 2,0 -0,2 4 2 W 1010,4 -
16.02.2019 20:00:00 - - - - - - -
16.02.2019 19:00:00 - - - - - - -
16.02.2019 18:00:00 1,4 -1,7 0 0 N 1012,3 10
16.02.2019 17:00:00 - - - - - - -
16.02.2019 16:00:00 - - - - - - -
16.02.2019 15:00:00 3,8 -2,1 4 2 W 1014,0 10
16.02.2019 14:00:00 - - - - - - -
16.02.2019 13:00:00 - - - - - - -
16.02.2019 12:00:00 3,4 -1,9 7 4 NNW 1014,6 10
16.02.2019 11:00:00 - - - - - - -
16.02.2019 10:00:00 - - - - - - -
16.02.2019 09:00:00 1,9 -1,1 11 6 NW 1013,8 10
16.02.2019 08:00:00 - - - - - - -
16.02.2019 07:00:00 - - - - - - -
16.02.2019 06:00:00 1,6 -1,1 7 4 WNW 1012,5 -
16.02.2019 05:00:00 - - - - - - -
16.02.2019 04:00:00 - - - - - - -
16.02.2019 03:00:00 1,4 -1,5 7 4 WNW 1011,9 -
16.02.2019 02:00:00 - - - - - - -
16.02.2019 01:00:00 - - - - - - -
16.02.2019 00:00:00 2,6 -0,8 4 2 WNW 1011,9 -
15.02.2019 23:00:00 - - - - - - -

tt = temperature
td = dewpoint
ff = wind speed
dd = wind direction
ppp = reduced air pressure
vv = visibility

Next stations